Location: Zeiss-Gro�planetarium Berlin
(52.5430°N, 13.4281°E)
Time: 08:51:21
(UTC+02:00)

ISS - Visible Passes

Search period start: 21 September 2020 00:00
Search period end: 01 October 2020 00:00
Orbit: 419 x 420 km, 51.6° (Epoch: 21 September)

Date Brightness Start Highest point End Pass type
(mag) Time Alt. Az. Time Alt. Az. Time Alt. Az.
21 Sep -3.6 20:54:51 10° WSW 20:58:09 53° SSE 20:58:28 51° SE visible
22 Sep -3.2 20:07:36 10° SW 20:10:49 42° SSE 20:13:00 18° E visible
22 Sep -2.1 21:44:05 10° W 21:45:58 30° W 21:45:58 30° W visible
23 Sep -3.9 20:56:42 10° WSW 21:00:04 73° S 21:00:24 65° SE visible
24 Sep -3.7 20:09:19 10° WSW 20:12:40 65° SSE 20:14:47 21° E visible
24 Sep -1.8 21:46:02 10° W 21:47:44 27° W 21:47:44 27° W visible
25 Sep -3.9 20:58:36 10° W 21:01:59 78° S 21:02:05 76° SSE visible
26 Sep -3.8 20:11:10 10° W 20:14:33 78° S 20:16:24 25° E visible
26 Sep -1.5 21:47:56 10° W 21:49:21 22° W 21:49:21 22° W visible
27 Sep -3.7 19:23:44 10° WSW 19:27:06 73° S 19:30:28 10° E visible
27 Sep -3.6 21:00:29 10° W 21:03:39 62° SW 21:03:39 62° SW visible
28 Sep -3.7 20:13:01 10° W 20:16:24 72° S 20:17:57 29° ESE visible
28 Sep -1.1 21:49:54 10° W 21:50:54 17° W 21:50:54 17° W visible
29 Sep -3.7 19:25:33 10° W 19:28:56 77° S 19:32:15 10° E visible
29 Sep -2.8 21:02:22 10° W 21:05:12 39° SW 21:05:12 39° SW visible
30 Sep -3.3 20:14:51 10° W 20:18:09 52° SSW 20:19:31 30° SE visible
30 Sep -0.6 21:52:11 10° W 21:52:29 11° WSW 21:52:29 11° WSW visible
